Terminal Aerodrome Forecast
Issued by NWS Omaha/Valley, NE

Home | Current Version | Previous Version | Text Only | Print | Product List | Glossary Off
Versions: 1 2 3 4 5 6 7 8 9 10 11 12 13 14 15 16 17 18 19 20 21 22 23 24 25 26 27 28 29 30 31 32 33 34 35 36 37 38 39 40 41 42 43

000
FTUS43 KOAX 221121
TAFOFK
TAF
KOFK 221121Z 2212/2312 20008KT 5SM BR SCT008
      TEMPO 2212/2214 3SM BR OVC006
     FM221400 21012KT P6SM SCT250
     FM230900 26007KT P6SM BKN250=

USA.gov is the U.S. government's official web portal to all federal, state and local government web resources and services.